DW8500 Weather Reports


Display with metric or nautical units.
time (UTC)temp
F
wind
direction
speed
MPH
gust
MPH
rain 1hr
in
rain 24hr
in
rain mn
in
humidity
%
barometer
mb
20260510013712 46 75 0.0 0.0 0.00 0.63 0.63 65 1013.0
20260510013251 46 75 0.0 0.0 0.00 0.63 0.63 65 1012.8
20260510012705 46 75 0.0 0.0 0.00 0.63 0.63 65 1012.7
20260510012222 46 75 0.0 0.0 0.00 0.63 0.63 65 1012.6
20260510011721 46 75 0.0 0.0 0.00 0.63 0.63 65 1012.7
20260510011633 46 75 0.0 0.0 0.00 0.63 0.63 65 1013.2
20260510011233 46 75 0.0 0.0 0.00 0.63 0.63 65 1012.6
20260510010713 46 75 0.0 0.0 0.00 0.63 0.63 65 1012.7
20260510010211 46 75 0.0 0.0 0.00 0.63 0.63 65 1012.5
20260510005810 46 75 0.0 0.0 0.00 0.63 0.63 65 1012.6
20260510005222 46 75 0.0 0.0 0.00 0.63 0.63 65 1012.7
20260510004742 46 75 0.0 0.0 0.00 0.63 0.63 65 1012.7
20260510004633 46 75 0.0 0.0 0.00 0.63 0.63 65 1013.1
20260510004216 46 75 0.0 0.0 0.00 0.63 0.63 65 1012.7
20260510003715 46 75 0.0 0.0 0.00 0.63 0.63 65 1012.7
20260510003214 46 75 0.0 0.0 0.00 0.63 0.63 65 1012.8
20260510002732 46 75 0.0 0.0 0.00 0.63 0.63 65 1012.6
20260510002211 46 74 0.0 0.0 0.00 0.63 0.63 65 1012.7
20260510001710 46 111 0.0 0.0 0.00 0.63 0.63 65 1012.7
20260510001209 46 110 0.0 0.0 0.00 0.63 0.63 65 1012.7
20260510000709 46 110 0.0 0.0 0.00 0.63 0.63 65 1012.8
20260510000207 46 110 0.0 0.0 0.00 0.63 0.63 65 1012.8
20260509235706 46 110 0.0 0.0 0.00 0.63 0.63 65 1012.7
20260509235223 46 110 0.0 0.0 0.00 0.63 0.63 65 1012.7
20260509234721 46 110 0.0 0.0 0.00 0.63 0.63 65 1012.6
20260509234633 46 110 0.0 0.0 0.00 0.63 0.63 65 1013.0
20260509234217 46 110 0.0 0.0 0.01 0.63 0.63 65 1012.5
20260509233718 46 110 0.0 0.0 0.01 0.63 0.63 65 1012.5
20260509233230 46 110 0.0 0.0 0.01 0.63 0.63 65 1012.3
20260509232709 46 110 0.0 0.0 0.02 0.63 0.63 65 1012.3
20260509232206 46 110 0.0 0.0 0.02 0.63 0.63 65 1012.3
20260509231706 46 110 0.0 0.0 0.03 0.63 0.63 65 1012.3
20260509231245 46 110 0.0 0.0 0.03 0.63 0.63 65 1012.2
20260509230722 46 119 0.0 0.0 0.03 0.63 0.63 65 1012.3
20260509230218 46 119 0.0 0.0 0.04 0.63 0.63 65 1012.2
20260509230134 46 119 0.0 0.0 0.04 0.63 0.63 65 1012.5
20260509225718 46 117 0.0 0.0 0.04 0.63 0.63 65 1012.2
20260509225214 46 117 0.0 0.0 0.05 0.63 0.63 65 1012.1
20260509224715 46 117 0.0 0.0 0.06 0.63 0.63 65 1012.1
20260509224207 46 117 0.0 1.0 0.06 0.62 0.62 65 1012.0
20260509223709 46 113 0.0 1.0 0.06 0.62 0.62 65 1012.0
20260509223228 46 113 0.0 1.0 0.07 0.62 0.62 65 1011.9
20260509222725 46 113 0.0 2.0 0.07 0.61 0.61 65 1012.0
20260509222204 46 113 0.0 2.0 0.07 0.61 0.61 65 1012.0
20260509221705 46 115 1.0 2.0 0.07 0.60 0.60 65 1012.0
20260509221223 46 236 0.0 2.0 0.08 0.60 0.60 65 1012.3
20260509220704 46 99 2.0 2.0 0.08 0.60 0.60 65 1012.2
20260509220222 46 258 1.0 2.0 0.08 0.59 0.59 65 1012.5
20260509220137 46 257 1.0 2.0 0.08 0.59 0.59 65 1012.9
20260509215703 46 82 2.0 2.0 0.09 0.59 0.59 65 1012.3
20260509215220 46 266 1.0 2.0 0.09 0.58 0.58 65 1012.6
20260509214719 46 95 1.0 2.0 0.09 0.57 0.57 65 1012.4
20260509214637 46 95 1.0 2.0 0.09 0.56 0.56 65 1012.8
20260509214216 46 100 0.0 1.0 0.09 0.56 0.56 65 1012.7
20260509213717 46 100 0.0 1.0 0.10 0.55 0.55 65 1012.7
20260509213212 46 100 0.0 1.0 0.13 0.55 0.55 65 1012.8
20260509213126 46 100 0.0 1.0 0.13 0.55 0.55 65 1013.1
20260509212713 46 101 0.0 1.0 0.13 0.54 0.54 65 1012.8
20260509212211 46 96 0.0 0.0 0.15 0.54 0.54 65 1012.7
20260509211712 46 98 0.0 0.0 0.14 0.53 0.53 65 1012.9
20260509211207 46 91 0.0 0.0 0.14 0.52 0.52 65 1012.9
20260509210710 46 91 0.0 0.0 0.14 0.52 0.52 65 1012.9
20260509210207 46 91 0.0 0.0 0.14 0.51 0.51 65 1012.9
20260509205725 46 91 0.0 0.0 0.13 0.50 0.50 64 1013.0
20260509205237 46 91 0.0 0.0 0.13 0.49 0.49 64 1012.9
20260509204736 46 91 0.0 0.0 0.12 0.48 0.48 64 1013.0
20260509204638 46 91 0.0 0.0 0.12 0.48 0.48 64 1013.3
20260509204211 46 90 0.0 0.0 0.11 0.47 0.47 64 1013.1
20260509203712 46 91 0.0 0.0 0.09 0.45 0.45 64 1013.0
20260509203209 46 325 0.0 1.0 0.06 0.42 0.42 64 1013.1
20260509202708 46 326 0.0 1.0 0.04 0.40 0.40 64 1012.9
20260509202227 46 273 0.0 1.0 0.03 0.39 0.39 64 1013.0
20260509201707 46 103 0.0 0.0 0.02 0.38 0.38 64 1012.9
20260509201204 46 102 0.0 1.0 0.02 0.38 0.38 64 1012.9
20260509200720 46 102 0.0 1.0 0.02 0.38 0.38 64 1012.7
20260509200216 46 102 0.0 1.0 0.01 0.37 0.37 64 1012.7
20260509200133 46 102 0.0 1.0 0.01 0.37 0.37 64 1013.0
20260509195715 47 102 0.0 1.0 0.01 0.37 0.37 64 1012.8
20260509195231 47 102 0.0 1.0 0.00 0.36 0.36 64 1012.7
20260509194709 47 103 0.0 1.0 0.00 0.36 0.36 64 1012.8
20260509194226 47 101 0.0 2.0 0.00 0.36 0.36 64 1012.7
20260509193707 47 100 0.0 2.0 0.00 0.36 0.36 64 1012.6
20260509193205 47 89 0.0 1.0 0.00 0.36 0.36 64 1012.6
20260509192706 46 89 1.0 2.0 0.01 0.36 0.36 64 1012.6
20260509192205 46 88 0.0 2.0 0.01 0.36 0.36 64 1012.9
20260509191721 46 115 0.0 2.0 0.01 0.36 0.36 64 1012.9
20260509191640 46 130 0.0 2.0 0.01 0.36 0.36 64 1013.2
20260509190717 46 245 0.0 1.0 0.03 0.36 0.36 64 1013.0
20260509190214 46 245 1.0 1.0 0.04 0.36 0.36 64 1013.0
20260509190127 46 245 0.0 1.0 0.04 0.36 0.36 64 1013.2
20260509185715 46 244 1.0 1.0 0.04 0.36 0.36 64 1013.1
20260509185214 46 67 0.0 1.0 0.05 0.36 0.36 64 1013.0
20260509184713 46 108 0.0 1.0 0.06 0.36 0.36 64 1013.2
20260509184211 46 108 0.0 1.0 0.07 0.36 0.36 64 1013.1
20260509183713 46 108 0.0 1.0 0.07 0.36 0.36 64 1013.3
20260509183212 45 85 0.0 1.0 0.08 0.36 0.36 64 1013.2
20260509182713 45 86 0.0 1.0 0.08 0.35 0.35 64 1013.4
20260509182212 45 86 0.0 1.0 0.09 0.35 0.35 64 1013.5
20260509181706 45 86 0.0 1.0 0.10 0.35 0.35 64 1013.5
20260509181224 45 65 0.0 1.0 0.10 0.34 0.34 63 1013.7
20260509180724 45 65 0.0 0.0 0.10 0.33 0.33 63 1013.7
20260509180222 45 65 0.0 1.0 0.10 0.32 0.32 63 1013.9
20260509180134 44 65 0.0 1.0 0.10 0.32 0.32 63 1014.1
20260509175720 45 65 0.0 1.0 0.10 0.31 0.31 63 1013.8
20260509175217 45 65 0.0 0.0 0.10 0.31 0.31 63 1013.8
20260509174737 45 65 0.0 0.0 0.10 0.30 0.30 63 1013.8
20260509174234 45 65 0.0 1.0 0.10 0.29 0.29 63 1013.8
20260509173731 45 65 0.0 1.0 0.11 0.29 0.29 63 1013.8
20260509173206 45 65 0.0 1.0 0.11 0.28 0.28 63 1014.0
20260509172709 45 65 0.0 1.0 0.11 0.27 0.27 62 1014.0
20260509172207 45 65 0.0 1.0 0.10 0.26 0.26 62 1014.2
20260509171745 45 65 0.0 0.0 0.10 0.25 0.25 63 1014.3
20260509171637 44 65 0.0 0.0 0.00 0.00 0.25 63 1014.6
20260509171220 45 65 0.0 0.0 0.09 0.24 0.24 62 1014.1
20260509170718 45 65 0.0 1.0 0.09 0.23 0.23 61 1014.2
20260509170214 45 65 0.0 1.0 0.08 0.22 0.22 61 1014.4
20260509170131 44 65 0.0 0.0 0.08 0.22 0.22 61 1014.6
20260509165714 44 65 0.0 1.0 0.08 0.21 0.21 61 1014.4
20260509165233 44 65 0.0 1.0 0.08 0.21 0.21 61 1014.4
20260509164709 44 65 0.0 1.0 0.08 0.20 0.20 61 1014.5
20260509164205 44 65 0.0 0.0 0.08 0.19 0.19 61 1014.5
20260509163705 44 65 0.0 0.0 0.07 0.18 0.18 61 1014.5
20260509163222 44 65 0.0 0.0 0.06 0.17 0.17 61 1014.4
20260509163133 44 65 0.0 0.0 0.06 0.17 0.17 61 1014.6
20260509162719 44 65 0.0 1.0 0.06 0.16 0.16 61 1014.1
20260509162215 44 49 0.0 1.0 0.06 0.16 0.16 60 1014.0
20260509161714 44 49 0.0 1.0 0.05 0.15 0.15 61 1014.2
20260509161213 44 49 0.0 1.0 0.06 0.15 0.15 61 1014.1
20260509160715 44 49 0.0 1.0 0.05 0.14 0.14 61 1014.2
20260509160212 44 49 0.0 1.0 0.05 0.14 0.14 61 1014.3
20260509155712 44 49 0.0 1.0 0.05 0.13 0.13 61 1014.5
20260509155211 44 49 0.0 1.0 0.04 0.12 0.12 61 1014.5
20260509154707 44 49 0.0 1.0 0.04 0.12 0.12 61 1014.7
20260509154205 44 49 0.0 1.0 0.03 0.11 0.11 61 1014.7
20260509153705 44 49 0.0 0.0 0.03 0.11 0.11 61 1014.8
20260509153205 44 49 0.0 1.0 0.04 0.11 0.11 61 1015.0
20260509152704 44 49 0.0 1.0 0.03 0.10 0.10 61 1015.0
20260509152223 44 46 0.0 1.0 0.03 0.10 0.10 61 1014.8
20260509151702 44 46 0.0 1.0 0.04 0.10 0.10 60 1015.0
20260509151221 44 46 0.0 1.0 0.03 0.09 0.09 60 1015.1
20260509150721 44 124 0.0 1.0 0.03 0.09 0.09 60 1015.0
20260509150218 44 124 0.0 1.0 0.04 0.09 0.09 60 1015.1
20260509150131 43 124 0.0 1.0 0.04 0.09 0.09 60 1015.3
20260509145718 44 125 0.0 0.0 0.03 0.08 0.08 60 1015.0
20260509145213 44 124 0.0 1.0 0.03 0.08 0.08 60 1015.1
20260509144732 43 124 0.0 1.0 0.03 0.08 0.08 60 1015.1
20260509144209 43 124 0.0 1.0 0.04 0.08 0.08 60 1015.0
20260509143707 43 124 0.0 0.0 0.03 0.07 0.07 60 1015.1
20260509143204 43 124 0.0 1.0 0.03 0.07 0.07 58 1015.2
20260509142724 43 124 0.0 1.0 0.04 0.07 0.07 57 1015.1
20260509142220 42 124 0.0 1.0 0.03 0.06 0.06 57 1015.0
20260509141718 42 124 0.0 1.0 0.03 0.06 0.06 57 1015.1
20260509141632 42 124 0.0 1.0 0.03 0.06 0.06 57 1015.3
20260509141214 42 125 0.0 1.0 0.03 0.06 0.06 57 1015.0
20260509140713 42 125 0.0 1.0 0.03 0.06 0.06 56 1015.0
20260509140211 42 125 0.0 1.0 0.03 0.05 0.05 57 1015.0
20260509135728 42 125 0.0 1.0 0.03 0.05 0.05 57 1014.9
20260509135206 42 126 0.0 0.0 0.03 0.05 0.05 57 1015.0
20260509134706 42 125 0.0 0.0 0.04 0.05 0.05 57 1014.9
20260509134205 42 125 0.0 1.0 0.03 0.04 0.04 58 1014.9
20260509133705 42 126 0.0 1.0 0.03 0.04 0.04 58 1014.8
20260509133224 43 125 0.0 1.0 0.03 0.04 0.04 59 1014.7
20260509132704 43 125 0.0 1.0 0.03 0.03 0.03 59 1014.7
20260509132221 42 125 0.0 1.0 0.03 0.03 0.03 58 1014.6
20260509131740 42 125 0.0 1.0 0.03 0.03 0.03 58 1014.6
20260509131633 41 125 0.0 1.0 0.03 0.03 0.03 58 1014.9
20260509131212 42 125 0.0 1.0 0.03 0.03 0.03 58 1014.4
20260509130710 42 125 0.0 0.0 0.02 0.02 0.02 58 1014.4
20260509130228 41 125 0.0 0.0 0.02 0.02 0.02 58 1014.4
20260509125708 41 125 0.0 1.0 0.02 0.02 0.02 60 1014.5
20260509125206 41 125 0.0 1.0 0.02 0.02 0.02 60 1014.6
20260509124726 41 125 0.0 0.0 0.01 0.01 0.01 60 1014.7
20260509124223 41 125 0.0 0.0 0.01 0.01 0.01 60 1014.8
20260509123742 41 125 0.0 0.0 0.01 0.01 0.01 60 1014.8
20260509123217 41 125 0.0 1.0 0.01 0.01 0.01 60 1015.0
20260509123135 41 125 0.0 1.0 0.01 0.01 0.01 60 1015.2
20260509122713 41 125 0.0 1.0 0.00 0.00 0.00 61 1015.0
20260509122210 41 125 0.0 1.0 0.00 0.00 0.00 62 1015.0
20260509121712 42 125 0.0 1.0 0.00 0.00 0.00 62 1015.0
20260509120720 42 127 0.0 1.0 0.00 0.00 0.00 61 1015.2
20260509120216 42 125 0.0 1.0 0.00 0.00 0.00 61 1015.0
20260509120132 42 124 0.0 1.0 0.00 0.00 0.00 60 1015.3
20260509115735 42 197 0.0 0.0 0.00 0.00 0.00 59 1014.9
20260509115213 42 197 0.0 0.0 0.00 0.00 0.00 57 1015.0
20260509114711 42 197 0.0 0.0 0.00 0.00 0.00 57 1015.0
20260509114210 42 197 0.0 0.0 0.00 0.00 0.00 57 1014.9
20260509113221 41 197 0.0 1.0 0.00 0.00 0.00 58 1014.8
20260509113136 40 197 0.0 1.0 0.00 0.00 0.00 58 1015.1
20260509112717 41 197 0.0 1.0 0.00 0.00 0.00 58 1014.8
20260509112211 41 208 0.0 0.0 0.00 0.00 0.00 58 1014.8
20260509111709 40 207 0.0 0.0 0.00 0.00 0.00 58 1014.8
20260509111227 40 207 0.0 1.0 0.00 0.00 0.00 58 1014.8
20260509110706 40 207 0.0 1.0 0.00 0.00 0.00 58 1014.8
20260509110204 39 207 0.0 0.0 0.00 0.00 0.00 59 1014.9
20260509105704 39 207 0.0 0.0 0.00 0.00 0.00 59 1014.8
20260509105203 38 207 0.0 0.0 0.00 0.00 0.00 59 1014.9
20260509104704 38 207 0.0 0.0 0.00 0.00 0.00 59 1014.9
20260509104203 38 207 0.0 0.0 0.00 0.00 0.00 59 1015.0
20260509103722 38 207 0.0 0.0 0.00 0.00 0.00 59 1014.8
20260509103213 38 207 0.0 1.0 0.00 0.00 0.00 59 1014.8
20260509103132 37 207 0.0 1.0 0.00 0.00 0.00 59 1015.1
20260509102712 37 207 0.0 1.0 0.00 0.00 0.00 59 1014.7
20260509102211 37 207 0.0 0.0 0.00 0.00 0.00 60 1014.9
20260509101711 37 207 0.0 0.0 0.00 0.00 0.00 60 1014.8
20260509101210 37 207 0.0 0.0 0.00 0.00 0.00 59 1014.8
20260509100710 37 207 0.0 0.0 0.00 0.00 0.00 59 1014.7
20260509100206 36 207 0.0 0.0 0.00 0.00 0.00 59 1014.7
20260509095706 36 207 0.0 0.0 0.00 0.00 0.00 60 1014.5
20260509095204 36 208 0.0 0.0 0.00 0.00 0.00 60 1014.6
20260509094705 36 207 0.0 0.0 0.00 0.00 0.00 60 1014.6
20260509094203 35 207 0.0 0.0 0.00 0.00 0.00 60 1014.5
20260509093704 35 207 0.0 1.0 0.00 0.00 0.00 60 1014.4
20260509093202 35 207 0.0 1.0 0.00 0.00 0.00 61 1014.4
20260509092736 35 207 0.0 0.0 0.00 0.00 0.00 61 1014.5
20260509092212 35 207 0.0 0.0 0.00 0.00 0.00 61 1014.2
20260509091711 35 207 0.0 1.0 0.00 0.00 0.00 61 1014.1
20260509091635 34 207 0.0 1.0 0.00 0.00 0.00 61 1014.5
20260509091210 35 207 0.0 1.0 0.00 0.00 0.00 61 1014.2
20260509090202 35 207 0.0 1.0 0.00 0.00 0.00 61 1014.3
20260509085702 35 207 0.0 1.0 0.00 0.00 0.00 61 1014.2
20260509084702 34 207 0.0 0.0 0.00 0.00 0.00 62 1014.3
20260509084241 34 207 0.0 0.0 0.00 0.00 0.00 63 1013.9
20260509083716 35 207 0.0 0.0 0.00 0.00 0.00 63 1013.7
20260509083214 35 207 0.0 0.0 0.00 0.00 0.00 63 1013.7
20260509083133 34 208 0.0 0.0 0.00 0.00 0.00 63 1013.9
20260509082713 35 207 0.0 0.0 0.00 0.00 0.00 63 1013.7
20260509081702 35 207 0.0 0.0 0.00 0.00 0.00 63 1013.7
20260509081220 35 207 0.0 0.0 0.00 0.00 0.00 63 1013.8
20260509080721 35 207 0.0 0.0 0.00 0.00 0.00 64 1013.8
20260509080218 35 207 0.0 0.0 0.00 0.00 0.00 64 1013.7
20260509080143 35 207 0.0 0.0 0.00 0.00 0.00 64 1013.9
20260509075716 36 207 0.0 0.0 0.00 0.00 0.00 64 1013.6
20260509075233 36 207 0.0 0.0 0.00 0.00 0.00 64 1013.6
20260509074708 36 207 0.0 1.0 0.00 0.00 0.00 64 1013.7
20260509074207 36 207 0.0 1.0 0.00 0.00 0.00 64 1013.6
20260509073702 37 208 0.0 1.0 0.00 0.00 0.00 62 1013.7
20260509073241 37 207 0.0 1.0 0.00 0.00 0.00 62 1013.7
20260509073217 37 207 0.0 1.0 0.00 0.00 0.00 62 1013.9
20260509072739 38 207 0.0 1.0 0.00 0.00 0.00 62 1013.6
20260509072216 38 146 0.0 2.0 0.00 0.00 0.00 62 1013.7
20260509071713 38 233 0.0 2.0 0.00 0.00 0.00 63 1013.7
20260509071211 38 236 0.0 1.0 0.00 0.00 0.00 63 1013.7
20260509070712 38 236 0.0 1.0 0.00 0.00 0.00 63 1013.5
20260509070209 38 252 0.0 1.0 0.00 0.00 0.00 63 1013.6
20260509065710 38 252 0.0 0.0 0.00 0.00 0.00 62 1013.7
20260509065209 38 252 0.0 0.0 0.00 0.00 0.00 61 1013.5
20260509064704 39 252 0.0 0.0 0.00 0.00 0.00 60 1013.6
20260509064204 39 252 0.0 0.0 0.00 0.00 0.00 60 1013.6
20260509063703 39 252 0.0 0.0 0.00 0.00 0.00 61 1013.6
20260509063203 39 252 0.0 0.0 0.00 0.00 0.00 61 1013.7
20260509062702 39 252 0.0 0.0 0.00 0.00 0.00 61 1013.8
20260509062219 39 252 0.0 0.0 0.00 0.00 0.00 61 1013.7
20260509061718 39 252 0.0 0.0 0.00 0.00 0.00 60 1013.8
20260509061629 39 252 0.0 0.0 0.00 0.00 0.00 60 1014.1
20260509061213 40 252 0.0 1.0 0.00 0.00 0.00 60 1013.7
20260509060712 40 252 0.0 1.0 0.00 0.00 0.00 60 1013.8
20260509060211 40 252 0.0 1.0 0.00 0.00 0.00 59 1013.8
20260509055712 40 252 0.0 1.0 0.00 0.00 0.00 59 1013.9
20260509055227 40 252 0.0 1.0 0.00 0.00 0.00 59 1013.9
20260509054705 40 256 0.0 1.0 0.00 0.00 0.00 59 1013.9
20260509054202 40 262 0.0 1.0 0.00 0.00 0.00 59 1014.0
20260509053704 40 262 0.0 1.0 0.00 0.00 0.00 59 1014.0
20260509053201 40 262 0.0 1.0 0.00 0.00 0.00 58 1014.0
20260509052704 40 262 0.0 1.0 0.00 0.00 0.00 58 1013.8
20260509052203 40 269 0.0 1.0 0.00 0.00 0.00 59 1013.7
20260509051703 40 269 0.0 1.0 0.00 0.00 0.00 59 1013.6
20260509051203 40 269 0.0 1.0 0.00 0.00 0.00 60 1013.5
20260509050702 40 269 0.0 1.0 0.00 0.00 0.00 60 1013.5
20260509050222 40 269 0.0 1.0 0.00 0.00 0.00 59 1013.7
20260509050133 39 269 0.0 1.0 0.00 0.00 0.00 59 1013.9
20260509045700 40 269 0.0 1.0 0.00 0.00 0.00 60 1013.6
20260509045216 40 269 0.0 1.0 0.00 0.00 0.00 59 1013.6
20260509044714 40 269 0.0 1.0 0.00 0.00 0.00 59 1013.7
20260509044635 40 269 0.0 1.0 0.00 0.00 0.00 59 1013.8
20260509044233 41 269 0.0 1.0 0.00 0.00 0.00 58 1013.6
20260509043711 41 269 0.0 1.0 0.00 0.00 0.00 57 1013.6
20260509043209 41 269 0.0 1.0 0.00 0.00 0.00 56 1013.7
20260509042710 41 269 0.0 1.0 0.00 0.00 0.00 56 1013.7
20260509042205 41 269 0.0 1.0 0.00 0.00 0.00 56 1013.6
20260509041704 41 264 0.0 0.0 0.00 0.00 0.00 57 1013.5
20260509041203 41 264 0.0 0.0 0.00 0.00 0.00 57 1013.6
20260509040705 41 264 0.0 0.0 0.00 0.00 0.00 56 1013.6
20260509040218 41 264 0.0 1.0 0.00 0.00 0.00 56 1013.5
20260509040136 41 264 0.0 1.0 0.00 0.00 0.00 56 1013.7
20260509035737 42 264 0.0 1.0 0.00 0.00 0.00 55 1013.4
20260509035214 42 264 0.0 1.0 0.00 0.00 0.00 55 1013.5
20260509034713 42 264 0.0 1.0 0.00 0.00 0.00 54 1013.5
20260509034210 43 264 0.0 2.0 0.00 0.00 0.00 53 1013.5
20260509033711 43 264 0.0 3.0 0.00 0.00 0.00 54 1013.4
20260509033231 42 245 1.0 3.0 0.00 0.00 0.00 55 1013.4
20260509032709 42 253 0.0 1.0 0.00 0.00 0.00 56 1013.4
20260509032208 42 303 0.0 1.0 0.00 0.00 0.00 55 1013.3
20260509031705 42 303 0.0 1.0 0.00 0.00 0.00 55 1013.2
20260509031239 42 281 0.0 1.0 0.00 0.00 0.00 55 1013.1
20260509030718 42 277 0.0 1.0 0.00 0.00 0.00 56 1013.2
20260509030235 42 277 0.0 1.0 0.00 0.00 0.00 55 1013.0
20260509030127 42 277 0.0 1.0 0.00 0.00 0.00 55 1013.2
20260509025712 42 277 0.0 1.0 0.00 0.00 0.00 54 1013.0
20260509025211 43 277 0.0 1.0 0.00 0.00 0.00 54 1013.0
20260509024711 43 277 0.0 1.0 0.00 0.00 0.00 53 1013.0
20260509024210 43 277 0.0 1.0 0.00 0.00 0.00 53 1013.0
20260509023712 43 277 0.0 1.0 0.00 0.00 0.00 54 1012.9
20260509023231 43 277 0.0 1.0 0.00 0.00 0.00 53 1013.0
20260509022706 44 277 0.0 1.0 0.00 0.00 0.00 52 1012.9
20260509022223 44 277 0.0 1.0 0.00 0.00 0.00 51 1013.0
20260509021704 44 277 0.0 0.0 0.00 0.00 0.00 51 1012.9
20260509021203 44 277 0.0 1.0 0.00 0.00 0.00 51 1013.0
20260509020703 45 277 0.0 1.0 0.00 0.00 0.00 51 1012.8
20260509020200 45 212 0.0 1.0 0.00 0.00 0.00 51 1012.7
20260509015702 45 212 0.0 1.0 0.00 0.00 0.00 50 1012.7
20260509015220 45 212 0.0 0.0 0.00 0.00 0.00 49 1012.6
20260509014700 46 257 0.0 1.0 0.00 0.00 0.00 48 1012.5
20260509014217 46 257 0.0 1.0 0.00 0.00 0.00 47 1012.3